Location: Unspecified
(0.0000°N, 0.0000°E)
Time: 23:54:58
(UTC+00:00)

S-56A Canister/Altair - Pass Details

Date: 09 October 2020
Orbit: 633 x 2499 km, 38.9° (Epoch: 28 October)

Event Time Altitude Azimuth Distance (km) Brightness Sun altitude
Rises 19:47:44 0° 308° (NW) 5,714 12.6 -29.9°
Reaches altitude 10° 19:51:53 10° 307° (NW) 4,477 11.9 -31.0°
Maximum altitude 20:03:28 74° 223° (SW) 1,538 8.9 -33.8°
Enters shadow 20:05:12 60° 163° (SSE) 1,578 8.8 -34.3°
Drops below altitude 10° 20:10:59 10° 139° (SE) 2,988 - -35.7°
Sets 20:13:15 0° 137° (SE) 3,750 - -36.3°
